Main page
METAR-TAF:

METAR-TAF

Airports :

Sabzevar Airport

Sabzevar, Iran

latitude: 36-13N, longitude: 057-40E, elevation: 941 m

Current weather observation

The report was made 2 hours and 11 minutes ago, at 17:00 UTC
Calm wind
Temperature 1°C
Humidity 100%
Pressure 1018 hPa
Visibility: 6000 m
Scattered clouds at a height of 2000 ft
Overcast at a height of 9000 ft

METAR: OIMS 181700Z 00000KT 6000 SCT020 OVC090 01/01 Q1018 REDZ

Time: 22:41 (19:11 UTC)


TAF: missing

Weather observations and forecasts of more than 4000 airports (METAR and TAF reports).

The available stations are represented by yellow and red dots on the map.

Hover mouse over dot to see the name of the station.

Then click to see weather observations and forecasts.

To change the map : click on the green buttons with a black cross to zoom in, on the green button with a dash to zoom out, or on the green arrows for adjacent maps.


METAR-TAF: